Time,TemperatureF,DewpointF,PressureIn,WindDirection,WindDirectionDegrees,WindSpeedMPH,WindSpeedGustMPH,Humidity,HourlyPrecipIn,Conditions,Clouds,dailyrainin,SolarRadiationWatts/m^2,SoftwareType,DateUTC
2013-06-16 00:02:00,70.0,61.0,-100.00,SSW,209,1.0,3.0,74,0.00,,,0.00,0.000000,,2013-06-16 04:02:00,
2013-06-16 00:23:00,67.0,61.0,-100.00,SE,126,0.0,3.0,80,0.00,,,0.00,0.000000,,2013-06-16 04:23:00,
2013-06-16 00:34:00,67.0,61.0,-100.00,SE,126,0.0,3.0,80,0.00,,,0.00,0.000000,,2013-06-16 04:34:00,
2013-06-16 00:43:00,67.0,61.0,-100.00,SE,126,0.0,3.0,80,0.00,,,0.00,0.000000,,2013-06-16 04:43:00,
2013-06-16 00:53:00,67.0,61.0,-100.00,SE,126,0.0,3.0,80,0.00,,,0.00,0.000000,,2013-06-16 04:53:00,
2013-06-16 01:02:00,67.0,61.0,-100.00,SE,126,0.0,3.0,80,0.00,,,0.00,0.000000,,2013-06-16 05:02:00,
2013-06-16 01:22:00,65.0,62.0,-100.00,SW,217,0.0,2.0,89,0.00,,,0.00,0.000000,,2013-06-16 05:22:00,
2013-06-16 01:34:00,65.0,62.0,-100.00,SW,217,0.0,2.0,89,0.00,,,0.00,0.000000,,2013-06-16 05:34:00,
2013-06-16 01:43:00,65.0,62.0,-100.00,SW,217,0.0,2.0,89,0.00,,,0.00,0.000000,,2013-06-16 05:43:00,
2013-06-16 01:52:00,65.0,62.0,-100.00,SW,217,0.0,2.0,89,0.00,,,0.00,0.000000,,2013-06-16 05:52:00,
2013-06-16 02:01:00,65.0,62.0,-100.00,SW,217,0.0,2.0,89,0.00,,,0.00,0.000000,,2013-06-16 06:01:00,
2013-06-16 02:23:00,64.0,61.0,-100.00,West,259,0.0,2.0,91,0.00,,,0.00,0.000000,,2013-06-16 06:23:00,
2013-06-16 02:33:00,64.0,61.0,-100.00,West,259,0.0,2.0,91,0.00,,,0.00,0.000000,,2013-06-16 06:33:00,
2013-06-16 02:43:00,64.0,61.0,-100.00,West,259,0.0,2.0,91,0.00,,,0.00,0.000000,,2013-06-16 06:43:00,
2013-06-16 02:52:00,64.0,61.0,-100.00,West,259,0.0,2.0,91,0.00,,,0.00,0.000000,,2013-06-16 06:52:00,
2013-06-16 03:01:00,64.0,61.0,-100.00,West,259,0.0,2.0,91,0.00,,,0.00,0.000000,,2013-06-16 07:01:00,
2013-06-16 03:23:00,62.0,60.0,-100.00,NW,310,1.0,2.0,93,0.00,,,0.00,0.000000,,2013-06-16 07:23:00,
2013-06-16 03:33:00,62.0,60.0,-100.00,NW,310,1.0,2.0,93,0.00,,,0.00,0.000000,,2013-06-16 07:33:00,
2013-06-16 03:43:00,62.0,60.0,-100.00,NW,310,1.0,2.0,93,0.00,,,0.00,0.000000,,2013-06-16 07:43:00,
2013-06-16 03:53:00,62.0,60.0,-100.00,NW,310,1.0,2.0,93,0.00,,,0.00,0.000000,,2013-06-16 07:53:00,
2013-06-16 04:02:00,62.0,60.0,-100.00,NW,310,1.0,2.0,93,0.00,,,0.00,0.000000,,2013-06-16 08:02:00,
2013-06-16 04:22:00,62.0,60.0,-100.00,South,175,1.0,3.0,94,0.00,,,0.00,0.000000,,2013-06-16 08:22:00,
2013-06-16 04:34:00,62.0,60.0,-100.00,South,175,1.0,3.0,94,0.00,,,0.00,0.000000,,2013-06-16 08:34:00,
2013-06-16 04:43:00,62.0,60.0,-100.00,South,175,1.0,3.0,94,0.00,,,0.00,0.000000,,2013-06-16 08:43:00,
2013-06-16 04:54:00,62.0,60.0,-100.00,South,175,1.0,3.0,94,0.00,,,0.00,0.000000,,2013-06-16 08:54:00,
2013-06-16 05:02:00,62.0,60.0,-100.00,South,175,1.0,3.0,94,0.00,,,0.00,0.000000,,2013-06-16 09:02:00,
2013-06-16 05:22:00,63.0,61.0,-100.00,SSW,198,3.0,5.0,92,0.00,,,0.00,0.000000,,2013-06-16 09:22:00,
2013-06-16 05:33:00,63.0,61.0,-100.00,SSW,198,3.0,5.0,92,0.00,,,0.00,0.000000,,2013-06-16 09:33:00,
2013-06-16 05:43:00,63.0,61.0,-100.00,SSW,198,3.0,5.0,92,0.00,,,0.00,0.000000,,2013-06-16 09:43:00,
2013-06-16 05:52:00,63.0,61.0,-100.00,SSW,198,3.0,5.0,92,0.00,,,0.00,0.000000,,2013-06-16 09:52:00,
2013-06-16 06:02:00,63.0,61.0,-100.00,SSW,198,3.0,5.0,92,0.00,,,0.00,0.000000,,2013-06-16 10:02:00,
2013-06-16 06:22:00,62.0,60.0,-100.00,WNW,296,0.0,5.0,92,0.00,,,0.00,0.000000,,2013-06-16 10:22:00,
2013-06-16 06:33:00,62.0,60.0,-100.00,WNW,296,0.0,5.0,92,0.00,,,0.00,0.000000,,2013-06-16 10:33:00,
2013-06-16 06:43:00,62.0,60.0,-100.00,WNW,296,0.0,5.0,92,0.00,,,0.00,0.000000,,2013-06-16 10:43:00,
2013-06-16 06:54:00,62.0,60.0,-100.00,WNW,296,0.0,5.0,92,0.00,,,0.00,0.000000,,2013-06-16 10:54:00,
2013-06-16 07:02:00,62.0,60.0,-100.00,WNW,296,0.0,5.0,92,0.00,,,0.00,0.000000,,2013-06-16 11:02:00,
2013-06-16 07:22:00,62.0,61.0,-100.00,NW,312,1.0,2.0,96,0.00,,,0.00,15.000000,,2013-06-16 11:22:00,
2013-06-16 07:34:00,62.0,61.0,-100.00,NW,312,1.0,2.0,96,0.00,,,0.00,15.000000,,2013-06-16 11:34:00,
2013-06-16 07:43:00,62.0,61.0,-100.00,NW,312,1.0,2.0,96,0.00,,,0.00,15.000000,,2013-06-16 11:43:00,
2013-06-16 07:53:00,62.0,61.0,-100.00,NW,312,1.0,2.0,96,0.00,,,0.00,15.000000,,2013-06-16 11:53:00,
2013-06-16 08:02:00,62.0,61.0,-100.00,NW,312,1.0,2.0,96,0.00,,,0.00,15.000000,,2013-06-16 12:02:00,
2013-06-16 08:22:00,66.0,62.0,-100.00,SSW,205,3.0,5.0,87,0.00,,,0.00,50.000000,,2013-06-16 12:22:00,
2013-06-16 08:33:00,66.0,62.0,-100.00,SSW,205,3.0,5.0,87,0.00,,,0.00,50.000000,,2013-06-16 12:33:00,
2013-06-16 08:43:00,66.0,62.0,-100.00,SSW,205,3.0,5.0,87,0.00,,,0.00,50.000000,,2013-06-16 12:43:00,
2013-06-16 08:53:00,66.0,62.0,-100.00,SSW,205,3.0,5.0,87,0.00,,,0.00,50.000000,,2013-06-16 12:53:00,
2013-06-16 09:01:00,66.0,62.0,-100.00,SSW,205,3.0,5.0,87,0.00,,,0.00,50.000000,,2013-06-16 13:01:00,
2013-06-16 09:22:00,69.0,64.0,-100.00,SW,221,3.0,6.0,83,0.00,,,0.00,119.000000,,2013-06-16 13:22:00,
2013-06-16 09:34:00,69.0,64.0,-100.00,SW,221,3.0,6.0,83,0.00,,,0.00,119.000000,,2013-06-16 13:34:00,
2013-06-16 09:43:00,69.0,64.0,-100.00,SW,221,3.0,6.0,83,0.00,,,0.00,119.000000,,2013-06-16 13:43:00,
2013-06-16 09:54:00,69.0,64.0,-100.00,SW,221,3.0,6.0,83,0.00,,,0.00,119.000000,,2013-06-16 13:54:00,
2013-06-16 10:02:00,69.0,64.0,-100.00,SW,221,3.0,6.0,83,0.00,,,0.00,119.000000,,2013-06-16 14:02:00,
2013-06-16 10:22:00,74.0,64.0,-100.00,SW,227,4.0,7.0,71,0.00,,,0.00,595.000000,,2013-06-16 14:22:00,
2013-06-16 10:34:00,74.0,64.0,-100.00,SW,227,4.0,7.0,71,0.00,,,0.00,595.000000,,2013-06-16 14:34:00,
2013-06-16 10:44:00,74.0,64.0,-100.00,SW,227,4.0,7.0,71,0.00,,,0.00,595.000000,,2013-06-16 14:44:00,
2013-06-16 10:53:00,74.0,64.0,-100.00,SW,227,4.0,7.0,71,0.00,,,0.00,595.000000,,2013-06-16 14:53:00,
2013-06-16 11:02:00,74.0,64.0,-100.00,SW,227,4.0,7.0,71,0.00,,,0.00,595.000000,,2013-06-16 15:02:00,
2013-06-16 11:23:00,78.0,64.0,-100.00,SSW,204,5.0,8.0,63,0.00,,,0.00,779.000000,,2013-06-16 15:23:00,
2013-06-16 11:34:00,78.0,64.0,-100.00,SSW,204,5.0,8.0,63,0.00,,,0.00,779.000000,,2013-06-16 15:34:00,
2013-06-16 11:43:00,78.0,64.0,-100.00,SSW,204,5.0,8.0,63,0.00,,,0.00,779.000000,,2013-06-16 15:43:00,
2013-06-16 11:53:00,78.0,64.0,-100.00,SSW,204,5.0,8.0,63,0.00,,,0.00,779.000000,,2013-06-16 15:53:00,
2013-06-16 12:02:00,78.0,64.0,-100.00,SSW,204,5.0,8.0,63,0.00,,,0.00,779.000000,,2013-06-16 16:02:00,
2013-06-16 12:23:00,81.0,66.0,-100.00,SSW,213,5.0,10.0,60,0.00,,,0.00,930.000000,,2013-06-16 16:23:00,
2013-06-16 12:33:00,81.0,66.0,-100.00,SSW,213,5.0,10.0,60,0.00,,,0.00,930.000000,,2013-06-16 16:33:00,
2013-06-16 12:43:00,81.0,66.0,-100.00,SSW,213,5.0,10.0,60,0.00,,,0.00,930.000000,,2013-06-16 16:43:00,
2013-06-16 12:53:00,81.0,66.0,-100.00,SSW,213,5.0,10.0,60,0.00,,,0.00,930.000000,,2013-06-16 16:53:00,
2013-06-16 13:02:00,81.0,66.0,-100.00,SSW,213,5.0,10.0,60,0.00,,,0.00,930.000000,,2013-06-16 17:02:00,
2013-06-16 13:22:00,83.0,68.0,-100.00,SW,229,6.0,12.0,60,0.00,,,0.00,990.000000,,2013-06-16 17:22:00,
2013-06-16 13:34:00,83.0,68.0,-100.00,SW,229,6.0,12.0,60,0.00,,,0.00,990.000000,,2013-06-16 17:34:00,
2013-06-16 13:43:00,83.0,68.0,-100.00,SW,229,6.0,12.0,60,0.00,,,0.00,990.000000,,2013-06-16 17:43:00,
2013-06-16 13:53:00,83.0,68.0,-100.00,SW,229,6.0,12.0,60,0.00,,,0.00,990.000000,,2013-06-16 17:53:00,
2013-06-16 14:02:00,83.0,68.0,-100.00,SW,229,6.0,12.0,60,0.00,,,0.00,990.000000,,2013-06-16 18:02:00,
2013-06-16 14:22:00,84.0,65.0,-100.00,SW,218,6.0,12.0,53,0.00,,,0.00,1029.000000,,2013-06-16 18:22:00,
2013-06-16 14:34:00,84.0,65.0,-100.00,SW,218,6.0,12.0,53,0.00,,,0.00,1029.000000,,2013-06-16 18:34:00,
2013-06-16 14:43:00,84.0,65.0,-100.00,SW,218,6.0,12.0,53,0.00,,,0.00,1029.000000,,2013-06-16 18:43:00,
2013-06-16 14:52:00,84.0,65.0,-100.00,SW,218,6.0,12.0,53,0.00,,,0.00,1029.000000,,2013-06-16 18:52:00,
2013-06-16 15:01:00,84.0,65.0,-100.00,SW,218,6.0,12.0,53,0.00,,,0.00,1029.000000,,2013-06-16 19:01:00,
2013-06-16 15:22:00,83.0,64.0,-100.00,SSW,194,7.0,12.0,52,0.00,,,0.00,745.000000,,2013-06-16 19:22:00,
2013-06-16 15:34:00,83.0,64.0,-100.00,SSW,194,7.0,12.0,52,0.00,,,0.00,745.000000,,2013-06-16 19:34:00,
2013-06-16 15:43:00,83.0,64.0,-100.00,SSW,194,7.0,12.0,52,0.00,,,0.00,745.000000,,2013-06-16 19:43:00,
2013-06-16 15:54:00,83.0,64.0,-100.00,SSW,194,7.0,12.0,52,0.00,,,0.00,745.000000,,2013-06-16 19:54:00,
2013-06-16 16:02:00,83.0,64.0,-100.00,SSW,194,7.0,12.0,52,0.00,,,0.00,745.000000,,2013-06-16 20:02:00,
2013-06-16 16:22:00,83.0,63.0,-100.00,SSW,212,7.0,13.0,51,0.00,,,0.00,740.000000,,2013-06-16 20:22:00,
2013-06-16 16:33:00,83.0,63.0,-100.00,SSW,212,7.0,13.0,51,0.00,,,0.00,740.000000,,2013-06-16 20:33:00,
2013-06-16 16:43:00,83.0,63.0,-100.00,SSW,212,7.0,13.0,51,0.00,,,0.00,740.000000,,2013-06-16 20:43:00,
2013-06-16 16:53:00,83.0,63.0,-100.00,SSW,212,7.0,13.0,51,0.00,,,0.00,740.000000,,2013-06-16 20:53:00,
2013-06-16 17:02:00,83.0,63.0,-100.00,SSW,212,7.0,13.0,51,0.00,,,0.00,740.000000,,2013-06-16 21:02:00,
2013-06-16 17:22:00,83.0,64.0,-100.00,SSW,206,7.0,12.0,52,0.00,,,0.00,640.000000,,2013-06-16 21:22:00,
2013-06-16 17:33:00,83.0,64.0,-100.00,SSW,206,7.0,12.0,52,0.00,,,0.00,640.000000,,2013-06-16 21:33:00,
2013-06-16 17:42:00,83.0,64.0,-100.00,SSW,206,7.0,12.0,52,0.00,,,0.00,640.000000,,2013-06-16 21:42:00,
2013-06-16 17:53:00,83.0,64.0,-100.00,SSW,206,7.0,12.0,52,0.00,,,0.00,640.000000,,2013-06-16 21:53:00,
2013-06-16 18:01:00,83.0,64.0,-100.00,SSW,206,7.0,12.0,52,0.00,,,0.00,640.000000,,2013-06-16 22:01:00,
2013-06-16 18:22:00,81.0,64.0,-100.00,SSW,205,5.0,10.0,56,0.00,,,-99.99,293.000000,,2013-06-16 22:22:00,
2013-06-16 18:32:00,81.0,64.0,-100.00,SSW,205,5.0,10.0,56,0.00,,,-99.99,293.000000,,2013-06-16 22:32:00,
2013-06-16 18:42:00,81.0,64.0,-100.00,SSW,205,5.0,10.0,56,0.00,,,-99.99,293.000000,,2013-06-16 22:42:00,
2013-06-16 18:52:00,81.0,64.0,-100.00,SSW,205,5.0,10.0,56,0.00,,,-99.99,293.000000,,2013-06-16 22:52:00,
2013-06-16 19:02:00,81.0,64.0,-100.00,SSW,205,5.0,10.0,56,0.00,,,-99.99,293.000000,,2013-06-16 23:02:00,
2013-06-16 19:22:00,80.0,64.0,-100.00,SSW,195,5.0,9.0,58,0.00,,,0.00,162.000000,,2013-06-16 23:22:00,
2013-06-16 19:32:00,80.0,64.0,-100.00,SSW,195,5.0,9.0,58,0.00,,,0.00,162.000000,,2013-06-16 23:32:00,
2013-06-16 19:42:00,80.0,64.0,-100.00,SSW,195,5.0,9.0,58,0.00,,,0.00,162.000000,,2013-06-16 23:42:00,
2013-06-16 19:52:00,80.0,64.0,-100.00,SSW,195,5.0,9.0,58,0.00,,,0.00,162.000000,,2013-06-16 23:52:00,
2013-06-16 20:02:00,80.0,64.0,-100.00,SSW,195,5.0,9.0,58,0.00,,,0.00,162.000000,,2013-06-17 00:02:00,
2013-06-16 20:22:00,78.0,64.0,-100.00,SSW,197,3.0,8.0,62,0.00,,,0.00,97.000000,,2013-06-17 00:22:00,
2013-06-16 20:32:00,78.0,64.0,-100.00,SSW,197,3.0,8.0,62,0.00,,,0.00,97.000000,,2013-06-17 00:32:00,
2013-06-16 20:43:00,78.0,64.0,-100.00,SSW,197,3.0,8.0,62,0.00,,,0.00,97.000000,,2013-06-17 00:43:00,
2013-06-16 20:52:00,78.0,64.0,-100.00,SSW,197,3.0,8.0,62,0.00,,,0.00,97.000000,,2013-06-17 00:52:00,
2013-06-16 21:02:00,78.0,64.0,-100.00,SSW,197,3.0,8.0,62,0.00,,,0.00,97.000000,,2013-06-17 01:02:00,
2013-06-16 21:22:00,75.0,65.0,-100.00,WSW,251,1.0,5.0,70,0.00,,,0.00,12.000000,,2013-06-17 01:22:00,
2013-06-16 21:32:00,75.0,65.0,-100.00,WSW,251,1.0,5.0,70,0.00,,,0.00,12.000000,,2013-06-17 01:32:00,
2013-06-16 21:43:00,75.0,65.0,-100.00,WSW,251,1.0,5.0,70,0.00,,,0.00,12.000000,,2013-06-17 01:43:00,
2013-06-16 21:53:00,75.0,65.0,-100.00,WSW,251,1.0,5.0,70,0.00,,,0.00,12.000000,,2013-06-17 01:53:00,
2013-06-16 22:02:00,75.0,65.0,-100.00,WSW,251,1.0,5.0,70,0.00,,,0.00,12.000000,,2013-06-17 02:02:00,
2013-06-16 22:22:00,73.0,64.0,-100.00,WNW,303,1.0,4.0,74,0.00,,,0.00,0.000000,,2013-06-17 02:22:00,
2013-06-16 22:34:00,73.0,64.0,-100.00,WNW,303,1.0,4.0,74,0.00,,,0.00,0.000000,,2013-06-17 02:34:00,
2013-06-16 22:43:00,73.0,64.0,-100.00,WNW,303,1.0,4.0,74,0.00,,,0.00,0.000000,,2013-06-17 02:43:00,
2013-06-16 22:53:00,73.0,64.0,-100.00,WNW,303,1.0,4.0,74,0.00,,,0.00,0.000000,,2013-06-17 02:53:00,
2013-06-16 23:02:00,73.0,64.0,-100.00,WNW,303,1.0,4.0,74,0.00,,,0.00,0.000000,,2013-06-17 03:02:00,
2013-06-16 23:22:00,73.0,65.0,-100.00,SW,217,2.0,5.0,75,0.00,,,0.00,0.000000,,2013-06-17 03:22:00,
2013-06-16 23:33:00,73.0,65.0,-100.00,SW,217,2.0,5.0,75,0.00,,,0.00,0.000000,,2013-06-17 03:33:00,
2013-06-16 23:44:00,73.0,65.0,-100.00,SW,217,2.0,5.0,75,0.00,,,0.00,0.000000,,2013-06-17 03:44:00,
2013-06-16 23:54:00,73.0,65.0,-100.00,SW,217,2.0,5.0,75,0.00,,,0.00,0.000000,,2013-06-17 03:54:00,